Track STARLINK-1457 now! 10-day predictions STARLINK-1457 is classified as:
1 45674U 20035T 22138.51350456 .00003329 00000-0 24222-3 0 9993 2 45674 53.0529 191.8488 0001449 65.2276 294.8863 15.06403525109020